EHI
17 28 24 7 0 0 1 4 9 10 11 12 9 4 2 1 0 0 0 0 0 0 0 0 0 0 0 0 0 0 0 0 0 0 0 0 0 0 0 0 0 0 0
24 36 29 8 0 0 1 5 9 12 14 17 16 10 4 2 1 0 0 0 0 0 0 0 0 0 0 0 0 0 0 0 0 0 0 0 0 0 0 0 0 0 0
28 39 29 8 1 0 3 7 11 15 19 24 24 16 7 3 1 0 0 0 0 0 0 0 0 0 0 0 0 0 0 0 0 0 0 0 0 0 0 0 0 0 0
25 33 27 11 2 0 4 9 14 16 20 25 24 16 7 3 1 0 0 0 0 0 0 0 0 0 0 0 0 0 0 0 0 0 0 0 0 0 0 0 0 0 0
20 29 31 17 4 0 3 9 14 16 16 17 16 11 5 2 0 0 0 0 0 0 0 0 0 0 0 0 0 0 0 0 0 0 0 0 0 0 0 0 0 0 0
16 25 33 23 7 0 1 5 10 12 10 8 7 5 2 0 0 0 0 0 0 0 0 0 0 0 0 0 0 0 0 0 0 0 0 0 0 0 0 0 0 0 0
10 20 32 27 10 3 2 3 6 8 8 6 5 4 2 1 1 1 1 1 0 0 0 0 0 0 0 0 0 0 0 0 0 0 0 0 0 0 0 0 0 0 0
5 16 29 25 11 6 4 4 6 8 9 9 9 8 5 3 2 2 2 1 0 0 0 0 0 0 0 0 0 0 0 0 0 0 0 0 0 0 0 0 0 0 0
2 10 18 15 9 7 5 6 9 11 11 12 13 12 9 6 4 3 1 0 0 0 0 0 0 0 0 0 0 0 0 0 0 0 0 2 3 2 0 0 0 0 0
1 4 7 7 5 5 5 7 10 12 12 12 13 13 11 7 4 2 1 0 0 0 0 0 0 0 0 0 0 0 0 0 0 0 1 5 8 4 0 0 0 0 0
8 6 5 5 6 5 5 7 10 13 14 14 13 15 13 8 4 2 3 3 2 0 0 0 0 0 0 0 0 0 0 0 0 0 5 13 15 6 0 0 0 0 0
27 19 14 15 17 14 11 12 14 20 24 23 21 24 23 17 10 6 7 8 4 1 0 0 0 0 0 0 1 1 0 0 0 0 11 26 23 7 1 0 0 0 0
45 35 28 34 38 33 27 23 24 31 37 36 34 36 38 34 25 17 15 12 7 4 3 3 3 1 0 1 2 2 1 1 0 1 17 35 28 9 1 0 0 0 1
51 42 39 48 55 51 43 37 35 40 45 46 46 46 48 49 39 31 28 20 14 13 12 10 6 2 1 1 2 2 2 1 1 3 19 33 27 9 2 0 0 1 2
47 43 45 54 60 58 52 45 42 42 43 45 49 49 52 54 47 40 39 30 21 18 18 14 7 3 2 2 1 0 1 1 2 4 14 23 18 7 2 0 0 1 2
48 47 51 56 58 57 52 46 42 39 35 37 42 45 47 48 47 45 43 35 25 18 14 11 6 3 3 3 1 0 0 0 1 3 6 8 7 4 1 0 0 1 2
51 53 53 52 51 51 48 43 38 32 27 27 32 35 36 38 42 45 42 34 27 18 11 9 7 6 5 5 3 2 1 1 1 1 1 2 1 1 0 0 1 1 1
48 50 48 42 41 42 43 39 31 24 20 21 24 26 28 31 35 39 37 31 25 18 12 10 9 8 7 7 5 3 3 1 0 0 1 2 2 2 3 2 2 2 1
36 36 35 32 31 31 31 28 22 16 15 15 18 21 24 26 27 28 27 23 20 19 16 12 10 9 8 7 5 4 2 1 0 0 1 2 3 4 6 4 2 1 1
24 23 23 23 22 21 19 16 13 11 10 10 13 16 17 18 17 15 14 14 15 19 18 15 11 9 8 7 4 2 1 0 0 0 0 1 1 3 4 3 2 2 2
17 17 17 16 15 14 13 11 9 7 6 6 7 10 10 10 9 6 5 7 11 15 16 14 10 8 6 5 2 0 0 0 0 0 0 0 0 0 1 1 1 3 4
11 11 11 10 9 9 9 7 5 3 3 4 4 5 6 6 5 4 4 6 9 13 13 11 9 7 3 2 1 0 0 0 0 0 0 0 0 0 0 0 1 2 3
5 4 4 4 4 3 3 2 1 1 1 2 2 3 3 3 4 4 5 6 8 11 11 10 9 6 3 1 0 0 0 0 0 0 0 0 0 0 0 0 0 1 1
2 1 1 1 1 0 0 0 0 0 0 1 1 1 1 1 1 3 3 4 6 8 9 9 7 5 3 1 0 0 0 0 0 0 0 0 0 0 0 0 0 0 0
1 0 0 0 0 0 0 0 0 0 0 0 0 0 0 0 0 1 1 2 3 4 4 5 5 5 4 3 2 1 0 0 0 0 0 0 0 0 0 0 0 0 0
0 0 0 0 0 0 0 0 0 0 0 0 0 0 0 0 0 0 1 2 1 1 1 2 4 5 6 6 4 1 0 0 0 0 0 0 0 0 0 0 0 0 0
Wind_Speed
14 18 20 16 15 13 13 13 13 14 14 14 14 14 13 13 12 11 10 10 9 8 7 7 8 8 8 8 9 9 10 10 10 10 11 10 10 10 10 10 9 12 13
17 20 21 17 16 14 13 13 13 13 13 14 14 14 13 12 12 11 10 9 8 8 7 7 7 8 8 8 9 9 9 9 9 9 10 10 10 9 9 6 4 11 12
18 20 20 17 16 15 13 13 13 13 13 13 13 13 12 12 11 11 10 9 8 7 7 7 7 7 7 8 8 8 8 8 8 8 8 9 10 9 8 7 10 12 11
18 19 18 18 16 15 14 13 13 13 13 13 13 12 12 11 11 11 10 9 8 7 7 7 6 7 7 7 7 8 8 7 7 8 7 6 9 10 8 8 9 10 10
17 16 18 19 17 16 15 14 13 13 13 12 12 12 11 11 10 10 9 8 8 7 7 7 7 7 7 7 7 7 7 7 6 8 5 5 6 10 8 8 8 9 10
17 16 19 19 17 16 15 14 13 13 13 12 12 11 11 10 10 9 9 8 8 7 7 7 7 7 7 7 7 7 7 7 9 7 6 5 7 9 8 8 9 9 9
17 15 19 18 17 16 15 15 14 13 13 12 11 11 10 10 10 9 9 8 7 7 7 7 7 7 7 7 7 7 7 7 9 5 6 5 6 8 7 9 9 9 9
16 15 18 18 17 16 15 14 14 13 12 11 11 10 10 9 9 8 8 8 8 8 7 7 7 8 8 8 8 8 8 9 10 7 7 6 8 8 8 9 10 10 10
15 14 15 17 16 15 14 14 14 13 12 11 11 10 10 9 9 9 8 8 9 8 8 8 8 9 9 9 10 10 10 10 12 7 8 6 10 9 10 11 11 11 12
13 13 13 14 14 14 14 14 13 12 12 11 11 10 10 10 10 10 10 11 10 10 10 10 10 11 11 11 11 12 11 11 13 11 7 7 12 10 11 12 13 14 14
11 11 12 13 12 12 12 13 13 13 12 12 12 12 11 11 12 11 13 11 11 12 12 12 12 12 12 13 14 13 12 10 12 10 8 8 12 11 12 12 13 14 15
13 12 11 10 11 10 8 9 9 10 10 11 9 10 10 9 8 8 6 9 11 13 13 14 13 13 13 11 13 15 10 13 11 9 7 11 12 13 14 13 13 13 15
13 12 11 10 10 10 7 7 6 6 6 9 10 9 8 7 7 8 6 8 11 13 12 11 13 11 11 9 7 9 11 10 8 8 7 14 14 15 16 15 15 15 15
12 13 11 11 9 9 7 6 5 5 5 6 7 9 8 6 7 7 6 7 7 6 7 8 7 10 10 10 10 11 11 9 8 7 6 13 15 16 17 17 16 16 16
11 11 11 10 9 7 6 4 5 5 5 6 6 7 9 8 8 8 6 6 8 7 7 8 9 9 10 10 10 11 12 12 11 9 6 12 14 16 17 17 17 17 17
9 9 9 9 8 6 5 4 5 5 5 7 6 8 9 8 8 8 8 7 8 8 7 7 9 9 9 8 10 11 11 11 11 11 10 9 15 16 16 17 17 17 17
5 6 6 7 7 6 6 6 6 6 6 7 6 8 9 10 9 8 8 7 7 7 8 7 9 8 8 9 10 11 9 10 10 10 10 8 9 15 17 16 16 16 16
2 3 3 2 3 3 3 3 4 5 6 6 7 7 10 10 9 8 7 7 6 6 6 6 7 7 8 8 7 8 7 7 10 10 10 9 8 8 13 17 15 15 15
4 4 3 1 1 1 3 3 4 5 6 6 7 7 7 7 7 7 6 5 6 6 6 7 6 7 7 7 7 7 7 8 8 9 10 11 10 9 8 11 14 14 16
5 4 2 1 0 2 3 4 4 5 5 5 5 5 6 5 6 5 5 6 6 6 6 6 7 6 6 6 7 6 6 7 7 8 9 9 9 10 10 9 9 12 16
5 4 3 2 1 2 2 3 4 4 4 4 4 4 4 4 4 4 5 5 6 6 7 7 7 8 7 5 6 7 7 8 8 7 7 7 8 8 7 7 8 7 8
5 4 2 1 2 2 2 3 3 4 4 3 3 3 4 4 3 4 5 5 5 5 7 8 8 7 6 6 6 6 6 7 7 7 6 7 7 6 7 7 6 6 7
4 2 2 2 2 2 3 3 3 3 3 3 3 2 3 3 3 4 5 5 5 7 7 8 8 10 8 7 7 6 6 5 4 6 6 5 5 5 5 4 6 6 7
2 1 1 2 3 3 4 4 4 4 4 3 3 2 2 2 3 3 4 4 6 6 6 8 9 8 9 8 7 7 7 5 5 4 7 7 6 6 5 4 5 5 6
2 2 3 3 4 5 5 5 5 5 4 3 2 1 2 2 2 2 2 3 4 5 6 7 6 8 8 9 8 7 7 6 7 6 5 6 6 6 5 5 4 4 4
5 5 5 5 6 6 7 6 7 7 6 5 4 3 3 2 2 2 2 2 3 4 5 5 6 8 8 9 9 8 7 7 7 7 6 6 5 5 4 3 4 4 3
Wind_Direction
159 145 147 158 161 161 157 153 152 155 157 157 157 155 155 154 154 153 152 150 146 143 136 126 119 117 115 112 111 112 113 115 118 119 118 115 115 118 121 128 144 115 112
149 143 149 158 161 162 159 154 150 151 154 156 157 157 155 155 156 156 156 155 153 151 145 135 128 122 119 116 116 117 119 123 127 127 129 127 122 122 126 131 84 109 124
147 143 152 158 162 163 160 156 153 153 155 155 157 158 157 157 158 159 160 160 159 157 147 137 133 128 126 125 125 127 129 133 136 142 168 151 128 129 128 119 105 122 130
148 148 156 155 163 164 163 160 159 158 158 158 159 160 161 162 163 165 166 165 165 162 152 147 144 139 136 135 136 137 140 143 146 175 189 137 136 132 142 135 132 137 139
148 150 149 158 164 166 165 164 163 163 163 163 164 165 166 167 170 171 170 170 172 167 162 160 158 154 150 148 146 147 149 152 162 215 138 131 123 135 154 153 151 149 148
151 155 149 162 165 167 168 168 168 167 167 168 169 170 172 174 177 180 178 178 181 179 175 174 173 168 165 163 162 164 165 169 200 188 149 167 134 142 166 168 168 166 162
157 157 151 164 167 170 170 171 172 171 171 172 173 175 178 181 186 189 187 188 192 193 190 187 185 182 181 181 181 182 186 196 233 182 176 183 130 139 176 181 182 180 177
160 160 149 164 169 171 173 174 176 176 176 177 179 181 186 190 195 200 200 202 206 208 207 206 201 199 197 198 199 199 202 220 225 211 206 197 132 161 198 199 194 193 190
163 159 156 167 171 174 176 178 180 181 182 184 187 190 195 201 206 211 212 215 218 219 219 220 218 215 211 209 210 210 212 225 252 224 212 207 151 183 207 212 207 204 202
167 167 163 172 171 177 178 181 184 186 189 193 197 200 204 210 215 219 221 214 223 227 227 227 228 227 223 219 218 217 218 221 238 237 220 189 157 192 213 218 215 210 207
172 173 176 174 175 184 185 173 186 191 196 201 203 206 213 221 217 210 223 213 222 232 235 235 234 234 232 226 224 223 221 232 229 238 226 163 167 199 218 224 223 216 210
177 181 180 183 176 189 191 176 195 199 193 210 213 209 215 224 235 239 204 217 233 239 242 240 240 239 237 233 215 214 226 230 241 231 216 162 182 208 220 225 225 222 216
178 184 182 185 182 193 194 194 204 211 202 212 220 222 230 235 231 234 231 213 224 231 237 231 231 235 235 235 237 221 230 235 235 236 212 172 193 212 221 224 226 225 221
181 186 189 185 189 199 207 208 214 222 218 227 221 229 232 233 240 238 236 242 235 230 235 246 243 243 246 245 239 239 236 235 238 237 215 179 198 214 221 224 226 226 223
183 189 190 190 192 196 206 236 237 243 244 237 241 234 240 241 241 242 242 243 248 247 239 239 248 252 251 247 243 239 241 240 244 243 225 190 203 217 224 225 226 226 224
186 189 189 192 193 197 207 228 249 252 252 262 253 250 244 245 244 245 245 243 246 247 249 250 250 251 251 249 246 243 240 238 239 240 244 213 205 216 224 227 227 226 225
176 179 184 192 195 205 222 232 248 253 255 260 260 252 247 245 243 240 243 241 243 246 247 247 251 252 250 245 244 244 242 240 240 237 242 244 223 212 217 222 225 227 226
107 130 149 195 193 217 245 259 263 268 268 267 266 258 252 249 245 243 244 242 242 246 246 244 247 249 249 250 249 248 245 240 242 241 240 237 241 236 211 211 219 225 228
79 99 117 137 207 258 262 266 270 278 273 272 272 266 260 254 248 245 247 242 239 242 243 249 242 247 249 247 247 240 243 242 242 241 242 243 238 238 241 200 205 220 227
78 89 102 114 14 302 286 288 287 282 281 278 275 270 265 255 245 246 251 246 244 246 244 243 250 244 253 250 256 253 245 245 241 239 240 238 238 236 237 234 215 213 217
81 81 77 53 11 315 297 290 292 287 288 285 283 290 279 263 255 254 260 255 250 248 250 246 245 238 238 238 246 245 235 232 236 237 237 242 230 230 238 235 239 243 211
80 84 87 61 23 336 318 300 293 295 291 292 295 298 297 290 279 261 260 259 254 256 251 250 243 249 239 220 241 249 239 210 208 220 219 223 231 221 223 223 234 238 256
71 62 44 13 344 334 319 293 288 270 267 273 279 281 296 301 300 293 275 271 267 253 245 243 238 237 240 223 228 249 255 241 182 181 206 214 215 223 231 223 227 232 239
58 28 334 318 308 307 298 301 301 298 299 295 291 300 314 311 300 296 293 282 275 267 260 252 237 237 239 235 215 233 264 310 271 193 188 193 205 221 241 252 249 236 239
306 298 290 288 287 286 287 289 289 295 302 297 288 270 277 291 297 298 297 289 283 281 276 269 263 246 240 243 234 217 220 224 243 262 216 190 201 211 215 231 247 250 247
284 282 280 278 279 280 278 281 280 288 288 288 277 272 258 253 255 272 283 286 285 287 284 277 269 255 253 253 253 240 225 222 220 229 232 219 218 209 208 228 233 221 222